Weather History for KMXF - July, 2013

Change the Weather History Date:

Tuesday, July 16, 2013

  Actual Average Record
Temperature  
Mean Temperature 82 °F -  
Max Temperature 90 °F 91 °F 102 °F (2000)
Min Temperature 73 °F 72 °F 69 °F (2014)
Cooling Degree Days 16    
Growing Degree Days 32 (Base 50)    
Moisture  
Dew Point 71 °F    
Average Humidity 77    
Maximum Humidity 94    
Minimum Humidity 51    
Precipitation  
Precipitation 0.00 in - - ()
Sea Level Pressure  
Sea Level Pressure 30.23 in    
Wind  
Wind Speed 9 mph (East)    
Max Wind Speed 13 mph    
Max Gust Speed 18 mph    
Visibility 10 miles    
Events      
Averages and records for this station are not official NWS values.
T = Trace of Precipitation, MM = Missing Value Source: NWS Daily Summary

Daily Weather History Graph

Daily Weather History Graph

Search for Another Location

Airport or City:

Trip Planner

Search our weather history database for the weather conditions in past years. The results will help you decide how hot, cold, wet, or windy it might be!

Date:

Astronomy

Jul. 16, 2013 Rise Set
Actual Time 5:49 AM CDT 7:52 PM CDT
Civil Twilight 5:22 AM CDT 8:20 PM CDT
Nautical Twilight 4:48 AM CDT 8:54 PM CDT
Astronomical Twilight 4:12 AM CDT 9:30 PM CDT
Moon 1:41 PM CDT (7/16) 12:09 AM CDT (7/16)
Length of Visible Light 14h 58m
Length of Day
14h 03m
First Quarter, 56% of the Moon is Illuminated
Jul 16
First Quarter
Jul 22
Full
Jul 29
Last Quarter
Aug 6
New
Aug 14
First Quarter

Hourly Weather History & Observations

Time (CDT) Temp. Heat Index Dew Point Humidity Pressure Visibility Wind Dir Wind Speed Gust Speed Precip Events Conditions
12:58 AM 75.6 °F - 71.1 °F 86% 30.21 in 10.0 mi East 9.2 mph - N/A   Clear
1:58 AM 75.2 °F - 71.2 °F 87% 30.19 in 10.0 mi East 11.5 mph - N/A   Clear
2:58 AM 74.1 °F - 70.9 °F 90% 30.20 in 10.0 mi East 8.1 mph - N/A   Clear
3:58 AM 73.8 °F - 71.1 °F 91% 30.21 in 10.0 mi East 8.1 mph - N/A   Partly Cloudy
4:13 AM 73.4 °F - 71.6 °F 94% 30.20 in 10.0 mi East 6.9 mph - N/A   Mostly Cloudy
4:18 AM 73.4 °F - 71.6 °F 94% 30.20 in 10.0 mi East 8.1 mph - N/A   Mostly Cloudy
4:58 AM 74.7 °F - 71.6 °F 90% 30.21 in 10.0 mi East 11.5 mph - N/A   Overcast
5:28 AM 75.2 °F - 71.6 °F 89% 30.20 in 10.0 mi East 6.9 mph - N/A   Overcast
5:58 AM 75.0 °F - 71.6 °F 89% 30.22 in 10.0 mi ENE 8.1 mph - N/A   Overcast
6:08 AM 75.2 °F - 71.6 °F 89% 30.21 in 10.0 mi East 8.1 mph - N/A   Overcast
6:13 AM 75.2 °F - 71.6 °F 89% 30.21 in 10.0 mi East 11.5 mph - N/A   Overcast
6:18 AM 75.2 °F - 71.6 °F 89% 30.21 in 10.0 mi East 6.9 mph - N/A   Overcast
6:23 AM 75.2 °F - 71.6 °F 89% 30.21 in 10.0 mi East 8.1 mph - N/A   Overcast
6:33 AM 75.2 °F - 71.6 °F 89% 30.21 in 10.0 mi East 9.2 mph - N/A   Overcast
6:58 AM 76.1 °F - 71.8 °F 86% 30.23 in 10.0 mi East 6.9 mph - N/A   Overcast
7:08 AM 77.0 °F - 71.6 °F 83% 30.22 in 10.0 mi ENE 9.2 mph - N/A   Overcast
7:58 AM 76.8 °F - 71.8 °F 84% 30.25 in 10.0 mi East 9.2 mph - N/A   Overcast
8:43 AM 78.8 °F - 71.6 °F 78% 30.25 in 10.0 mi ENE 11.5 mph - N/A   Overcast
8:53 AM 78.8 °F - 71.6 °F 78% 30.25 in 10.0 mi East 12.7 mph - N/A   Overcast
8:58 AM 78.8 °F - 71.6 °F 78% 30.26 in 10.0 mi East 11.5 mph - N/A   Overcast
9:58 AM 80.2 °F 84.2 °F 72.0 °F 76% 30.27 in 10.0 mi East 10.4 mph - N/A   Overcast
10:08 AM 82.4 °F 87.2 °F 71.6 °F 70% 30.26 in 10.0 mi East 9.2 mph - N/A   Overcast
10:18 AM 82.4 °F 87.2 °F 71.6 °F 70% 30.26 in 10.0 mi East 10.4 mph - N/A   Overcast
10:23 AM 82.4 °F 87.2 °F 71.6 °F 70% 30.26 in 10.0 mi ESE 12.7 mph - N/A   Overcast
10:33 AM 82.4 °F 87.2 °F 71.6 °F 70% 30.26 in 10.0 mi East 10.4 mph - N/A   Overcast
10:58 AM 82.4 °F 87.2 °F 71.6 °F 70% 30.28 in 10.0 mi East 12.7 mph - N/A   Overcast
11:58 AM 85.8 °F 90.8 °F 70.7 °F 60% 30.27 in 10.0 mi ESE 11.5 mph - N/A   Scattered Clouds
12:41 PM 86.0 °F 91.8 °F 71.6 °F 62% 30.25 in 10.0 mi ENE 12.7 mph 18.4 mph N/A   Scattered Clouds
12:58 PM 87.4 °F 93.1 °F 70.9 °F 58% 30.25 in 10.0 mi East 11.5 mph 17.3 mph N/A   Scattered Clouds
1:58 PM 87.8 °F 93.4 °F 70.7 °F 57% 30.24 in 10.0 mi East 11.5 mph - N/A   Scattered Clouds
2:58 PM 89.2 °F 94.5 °F 70.2 °F 53% 30.22 in 10.0 mi ENE 10.4 mph - N/A   Partly Cloudy
3:58 PM 90.1 °F 95.8 °F 70.5 °F 52% 30.21 in 10.0 mi East 9.2 mph - N/A   Partly Cloudy
4:58 PM 90.0 °F 95.0 °F 69.6 °F 51% 30.19 in 10.0 mi ENE 5.8 mph - N/A   Partly Cloudy
5:58 PM 89.4 °F 94.0 °F 69.1 °F 51% 30.19 in 10.0 mi East 9.2 mph - N/A   Clear
6:58 PM 87.8 °F 92.6 °F 69.6 °F 55% 30.19 in 10.0 mi ENE 8.1 mph - N/A   Clear
7:58 PM 84.7 °F 89.4 °F 70.3 °F 62% 30.21 in 10.0 mi East 4.6 mph - N/A   Clear
8:58 PM 79.0 °F - 72.7 °F 81% 30.23 in 10.0 mi NE 4.6 mph - N/A   Clear
9:58 PM 79.5 °F - 72.5 °F 79% 30.23 in 10.0 mi NE 4.6 mph - N/A   Clear
10:58 PM 76.8 °F - 73.0 °F 88% 30.25 in 10.0 mi NNE 4.6 mph - N/A   Clear
11:58 PM 76.8 °F - 73.4 °F 89% 30.25 in 10.0 mi North 1.2 mph - N/A   Clear